| time (UTC) | temp F | wind direction | speed MPH | gust MPH | rain 1hr in | rain 24hr in | rain mn in | humidity % | barometer mb |
| 20260506214646 | 57 | 345 | 8.0 | 9.0 | 0.00 | 0.38 | 0.38 | 63 | 1013.0 |
| 20260506214143 | 57 | 3 | 10.0 | 11.0 | 0.00 | 0.38 | 0.38 | 61 | 1013.1 |
| 20260506213641 | 57 | 2 | 6.0 | 7.0 | 0.00 | 0.38 | 0.38 | 62 | 1012.9 |
| 20260506213138 | 57 | 332 | 9.0 | 11.0 | 0.00 | 0.38 | 0.38 | 64 | 1012.6 |
| 20260506212636 | 57 | 338 | 10.0 | 10.0 | 0.00 | 0.38 | 0.38 | 62 | 1012.9 |
| 20260506212130 | 58 | 353 | 9.0 | 11.0 | 0.00 | 0.38 | 0.38 | 55 | 1012.7 |
| 20260506211626 | 58 | 356 | 9.0 | 10.0 | 0.00 | 0.38 | 0.38 | 59 | 1012.9 |
| 20260506211123 | 58 | 344 | 11.0 | 14.0 | 0.00 | 0.38 | 0.38 | 56 | 1012.6 |
| 20260506210620 | 59 | 340 | 10.0 | 11.0 | 0.00 | 0.38 | 0.38 | 60 | 1012.6 |
| 20260506210116 | 58 | 334 | 8.0 | 9.0 | 0.00 | 0.38 | 0.38 | 57 | 1012.6 |
| 20260506205613 | 58 | 351 | 6.0 | 7.0 | 0.00 | 0.38 | 0.38 | 56 | 1012.6 |
| 20260506205108 | 59 | 329 | 8.0 | 9.0 | 0.00 | 0.38 | 0.38 | 57 | 1012.5 |
| 20260506204607 | 59 | 332 | 9.0 | 10.0 | 0.00 | 0.38 | 0.38 | 57 | 1012.6 |
| 20260506204103 | 59 | 339 | 5.0 | 7.0 | 0.00 | 0.38 | 0.38 | 59 | 1012.7 |
| 20260506203602 | 59 | 358 | 6.0 | 7.0 | 0.00 | 0.38 | 0.38 | 58 | 1012.7 |
| 20260506203058 | 59 | 2 | 5.0 | 6.0 | 0.00 | 0.38 | 0.38 | 58 | 1012.4 |
| 20260506202556 | 59 | 332 | 8.0 | 8.0 | 0.00 | 0.38 | 0.38 | 56 | 1012.6 |
| 20260506202052 | 59 | 339 | 6.0 | 8.0 | 0.00 | 0.38 | 0.38 | 57 | 1012.6 |
| 20260506201549 | 60 | 346 | 5.0 | 6.0 | 0.00 | 0.38 | 0.38 | 57 | 1012.6 |
| 20260506201046 | 60 | 331 | 5.0 | 7.0 | 0.00 | 0.38 | 0.38 | 57 | 1012.7 |
| 20260506200542 | 59 | 358 | 3.0 | 4.0 | 0.00 | 0.38 | 0.38 | 56 | 1012.7 |
| 20260506200039 | 59 | 14 | 3.0 | 6.0 | 0.00 | 0.38 | 0.38 | 52 | 1012.8 |
| 20260506195535 | 59 | 333 | 10.0 | 11.0 | 0.00 | 0.38 | 0.38 | 52 | 1012.5 |
| 20260506195032 | 60 | 0 | 7.0 | 8.0 | 0.00 | 0.38 | 0.38 | 56 | 1012.6 |
| 20260506194530 | 59 | 323 | 1.0 | 2.0 | 0.00 | 0.38 | 0.38 | 57 | 1012.6 |
| 20260506194026 | 59 | 352 | 8.0 | 9.0 | 0.00 | 0.38 | 0.38 | 56 | 1012.7 |
| 20260506193523 | 60 | 321 | 8.0 | 9.0 | 0.00 | 0.38 | 0.38 | 60 | 1012.4 |
| 20260506193020 | 59 | 346 | 7.0 | 9.0 | 0.00 | 0.38 | 0.38 | 60 | 1012.5 |
| 20260506192517 | 60 | 326 | 4.0 | 4.0 | 0.00 | 0.38 | 0.38 | 54 | 1012.3 |
| 20260506192013 | 59 | 1 | 10.0 | 13.0 | 0.00 | 0.38 | 0.38 | 55 | 1012.4 |
| 20260506191510 | 60 | 315 | 5.0 | 6.0 | 0.00 | 0.38 | 0.38 | 54 | 1012.5 |
| 20260506191006 | 59 | 317 | 5.0 | 6.0 | 0.00 | 0.38 | 0.38 | 59 | 1012.6 |
| 20260506190503 | 60 | 8 | 4.0 | 6.0 | 0.00 | 0.38 | 0.38 | 58 | 1012.6 |
| 20260506190000 | 59 | 7 | 12.0 | 14.0 | 0.00 | 0.38 | 0.38 | 55 | 1012.4 |
| 20260506185458 | 58 | 333 | 5.0 | 7.0 | 0.00 | 0.38 | 0.38 | 56 | 1012.5 |
| 20260506184954 | 59 | 336 | 8.0 | 9.0 | 0.00 | 0.38 | 0.38 | 59 | 1012.7 |
| 20260506184451 | 59 | 355 | 9.0 | 10.0 | 0.00 | 0.38 | 0.38 | 55 | 1012.5 |
| 20260506183948 | 59 | 18 | 5.0 | 8.0 | 0.00 | 0.38 | 0.38 | 58 | 1012.7 |
| 20260506183444 | 59 | 340 | 8.0 | 8.0 | 0.00 | 0.38 | 0.38 | 55 | 1012.7 |
| 20260506182941 | 59 | 356 | 7.0 | 8.0 | 0.00 | 0.38 | 0.38 | 59 | 1012.5 |
| 20260506182438 | 59 | 338 | 6.0 | 7.0 | 0.00 | 0.38 | 0.38 | 52 | 1012.7 |
| 20260506181935 | 59 | 328 | 9.0 | 10.0 | 0.00 | 0.38 | 0.38 | 59 | 1012.7 |
| 20260506181433 | 58 | 56 | 7.0 | 9.0 | 0.00 | 0.38 | 0.38 | 56 | 1012.6 |
| 20260506180930 | 58 | 354 | 10.0 | 11.0 | 0.00 | 0.38 | 0.38 | 59 | 1012.8 |
| 20260506180426 | 58 | 355 | 9.0 | 13.0 | 0.00 | 0.38 | 0.38 | 60 | 1012.8 |
| 20260506175923 | 59 | 30 | 7.0 | 9.0 | 0.00 | 0.38 | 0.38 | 56 | 1012.9 |
| 20260506175420 | 58 | 354 | 9.0 | 13.0 | 0.00 | 0.38 | 0.38 | 62 | 1013.0 |
| 20260506174917 | 58 | 355 | 8.0 | 10.0 | 0.00 | 0.38 | 0.38 | 58 | 1012.9 |
| 20260506174414 | 58 | 17 | 6.0 | 8.0 | 0.00 | 0.38 | 0.38 | 60 | 1012.9 |
| 20260506173911 | 58 | 8 | 6.0 | 11.0 | 0.00 | 0.38 | 0.38 | 62 | 1012.6 |
| 20260506173408 | 57 | 357 | 10.0 | 11.0 | 0.00 | 0.38 | 0.38 | 62 | 1013.0 |
| 20260506172905 | 57 | 331 | 12.0 | 14.0 | 0.00 | 0.38 | 0.38 | 63 | 1012.8 |
| 20260506172402 | 57 | 348 | 9.0 | 9.0 | 0.00 | 0.38 | 0.38 | 63 | 1012.8 |
| 20260506171859 | 57 | 5 | 8.0 | 10.0 | 0.00 | 0.38 | 0.38 | 66 | 1012.9 |
| 20260506171356 | 57 | 4 | 10.0 | 11.0 | 0.00 | 0.38 | 0.38 | 62 | 1012.9 |
| 20260506170854 | 57 | 358 | 12.0 | 16.0 | 0.00 | 0.38 | 0.38 | 62 | 1012.6 |
| 20260506170349 | 57 | 56 | 6.0 | 8.0 | 0.00 | 0.38 | 0.38 | 63 | 1012.6 |
| 20260506165843 | 56 | 15 | 4.0 | 7.0 | 0.00 | 0.38 | 0.38 | 62 | 1012.8 |
| 20260506165341 | 56 | 343 | 8.0 | 9.0 | 0.00 | 0.38 | 0.38 | 67 | 1013.0 |
| 20260506164837 | 57 | 351 | 11.0 | 13.0 | 0.00 | 0.38 | 0.38 | 65 | 1013.0 |
| 20260506164334 | 56 | 22 | 9.0 | 13.0 | 0.00 | 0.38 | 0.38 | 70 | 1012.9 |
| 20260506163831 | 56 | 359 | 8.0 | 9.0 | 0.00 | 0.38 | 0.38 | 72 | 1012.8 |
| 20260506163325 | 56 | 356 | 9.0 | 9.0 | 0.00 | 0.38 | 0.38 | 73 | 1013.0 |
| 20260506162821 | 56 | 356 | 8.0 | 9.0 | 0.00 | 0.38 | 0.38 | 68 | 1013.1 |
| 20260506162319 | 55 | 357 | 7.0 | 10.0 | 0.00 | 0.38 | 0.38 | 75 | 1013.0 |
| 20260506161811 | 55 | 9 | 7.0 | 9.0 | 0.00 | 0.38 | 0.38 | 73 | 1012.6 |
| 20260506161308 | 54 | 346 | 10.0 | 10.0 | 0.00 | 0.38 | 0.38 | 78 | 1012.6 |
| 20260506160805 | 54 | 318 | 6.0 | 7.0 | 0.00 | 0.38 | 0.38 | 78 | 1012.5 |
| 20260506160302 | 54 | 334 | 8.0 | 9.0 | 0.00 | 0.38 | 0.38 | 76 | 1012.3 |
| 20260506155800 | 55 | 48 | 2.0 | 3.0 | 0.00 | 0.38 | 0.38 | 76 | 1012.6 |
| 20260506155256 | 54 | 356 | 7.0 | 9.0 | 0.00 | 0.38 | 0.38 | 75 | 1012.6 |
| 20260506153404 | 53 | 1 | 7.0 | 8.0 | 0.00 | 0.38 | 0.38 | 80 | 1012.3 |
| 20260506152901 | 52 | 353 | 6.0 | 7.0 | 0.00 | 0.38 | 0.38 | 87 | 1012.1 |
| 20260506152358 | 53 | 340 | 5.0 | 6.0 | 0.00 | 0.38 | 0.38 | 87 | 1012.1 |
| 20260506151857 | 52 | 347 | 8.0 | 9.0 | 0.00 | 0.38 | 0.38 | 88 | 1012.4 |
| 20260506151353 | 52 | 345 | 8.0 | 9.0 | 0.00 | 0.38 | 0.38 | 86 | 1012.2 |
| 20260506150851 | 52 | 330 | 6.0 | 8.0 | 0.00 | 0.38 | 0.38 | 88 | 1012.2 |
| 20260506150347 | 52 | 323 | 9.0 | 10.0 | 0.00 | 0.38 | 0.38 | 89 | 1012.2 |
| 20260506145844 | 51 | 3 | 9.0 | 11.0 | 0.00 | 0.38 | 0.38 | 88 | 1012.3 |
| 20260506145340 | 51 | 0 | 9.0 | 11.0 | 0.00 | 0.38 | 0.38 | 89 | 1012.1 |
| 20260506144838 | 51 | 351 | 9.0 | 10.0 | 0.00 | 0.38 | 0.38 | 90 | 1011.7 |
| 20260506144334 | 51 | 333 | 8.0 | 9.0 | 0.00 | 0.38 | 0.38 | 90 | 1012.0 |
| 20260506143833 | 51 | 327 | 6.0 | 7.0 | 0.00 | 0.38 | 0.38 | 91 | 1011.7 |
| 20260506143329 | 51 | 348 | 5.0 | 6.0 | 0.00 | 0.38 | 0.38 | 90 | 1011.7 |
| 20260506142828 | 51 | 6 | 6.0 | 7.0 | 0.00 | 0.38 | 0.38 | 90 | 1011.5 |
| 20260506142325 | 51 | 347 | 8.0 | 9.0 | 0.00 | 0.38 | 0.38 | 92 | 1011.8 |
| 20260506141823 | 51 | 330 | 9.0 | 10.0 | 0.00 | 0.38 | 0.38 | 89 | 1011.5 |
| 20260506141321 | 50 | 352 | 6.0 | 8.0 | 0.00 | 0.38 | 0.38 | 88 | 1011.6 |
| 20260506140819 | 51 | 10 | 8.0 | 9.0 | 0.00 | 0.38 | 0.38 | 89 | 1011.4 |
| 20260506140316 | 50 | 352 | 6.0 | 7.0 | 0.00 | 0.38 | 0.38 | 90 | 1011.3 |
| 20260506135813 | 50 | 347 | 4.0 | 4.0 | 0.00 | 0.38 | 0.38 | 91 | 1011.3 |
| 20260506135309 | 50 | 356 | 5.0 | 6.0 | 0.00 | 0.38 | 0.38 | 91 | 1011.2 |
| 20260506134805 | 50 | 2 | 7.0 | 8.0 | 0.00 | 0.38 | 0.38 | 91 | 1011.3 |
| 20260506134302 | 50 | 346 | 8.0 | 8.0 | 0.00 | 0.38 | 0.38 | 91 | 1010.8 |
| 20260506133759 | 50 | 357 | 8.0 | 9.0 | 0.00 | 0.38 | 0.38 | 92 | 1010.8 |
| 20260506133256 | 49 | 54 | 4.0 | 6.0 | 0.00 | 0.38 | 0.38 | 93 | 1011.0 |
| 20260506132753 | 49 | 355 | 5.0 | 6.0 | 0.00 | 0.38 | 0.38 | 94 | 1010.9 |
| 20260506132250 | 49 | 49 | 3.0 | 4.0 | 0.00 | 0.38 | 0.38 | 96 | 1010.7 |
| 20260506131748 | 49 | 37 | 4.0 | 6.0 | 0.00 | 0.38 | 0.38 | 97 | 1010.6 |
| 20260506131243 | 49 | 0 | 5.0 | 7.0 | 0.00 | 0.38 | 0.38 | 98 | 1010.8 |
| 20260506130740 | 48 | 39 | 5.0 | 7.0 | 0.00 | 0.38 | 0.38 | 98 | 1010.8 |
| 20260506130237 | 48 | 0 | 6.0 | 8.0 | 0.00 | 0.38 | 0.38 | 99 | 1010.9 |
| 20260506125736 | 48 | 16 | 7.0 | 8.0 | 0.00 | 0.38 | 0.38 | 99 | 1010.7 |
| 20260506125233 | 48 | 34 | 4.0 | 6.0 | 0.00 | 0.38 | 0.38 | 99 | 1010.6 |
| 20260506124731 | 48 | 14 | 4.0 | 6.0 | 0.00 | 0.38 | 0.38 | 99 | 1010.6 |
| 20260506124229 | 48 | 33 | 4.0 | 4.0 | 0.00 | 0.38 | 0.38 | 99 | 1010.5 |
| 20260506123726 | 48 | 339 | 6.0 | 7.0 | 0.00 | 0.38 | 0.38 | 99 | 1010.4 |
| 20260506123225 | 48 | 6 | 5.0 | 6.0 | 0.00 | 0.38 | 0.38 | 99 | 1010.2 |
| 20260506122721 | 47 | 9 | 4.0 | 6.0 | 0.00 | 0.38 | 0.38 | 99 | 1010.2 |
| 20260506122218 | 46 | 7 | 5.0 | 6.0 | 0.00 | 0.38 | 0.38 | 99 | 1010.2 |
| 20260506121716 | 47 | 51 | 7.0 | 8.0 | 0.00 | 0.38 | 0.38 | 99 | 1009.7 |
| 20260506121212 | 46 | 3 | 6.0 | 7.0 | 0.00 | 0.38 | 0.38 | 99 | 1009.9 |
| 20260506120710 | 47 | 5 | 4.0 | 9.0 | 0.00 | 0.38 | 0.38 | 99 | 1010.1 |
| 20260506120208 | 46 | 41 | 5.0 | 7.0 | 0.00 | 0.38 | 0.38 | 99 | 1010.5 |
| 20260506115706 | 46 | 5 | 7.0 | 8.0 | 0.00 | 0.38 | 0.38 | 99 | 1010.3 |
| 20260506115204 | 46 | 55 | 7.0 | 10.0 | 0.00 | 0.38 | 0.38 | 99 | 1009.8 |
| 20260506114701 | 46 | 7 | 11.0 | 13.0 | 0.00 | 0.38 | 0.38 | 99 | 1009.9 |
| 20260506114158 | 47 | 358 | 8.0 | 9.0 | 0.07 | 0.38 | 0.38 | 99 | 1009.8 |
| 20260506113657 | 47 | 0 | 4.0 | 6.0 | 0.07 | 0.38 | 0.38 | 99 | 1009.6 |
| 20260506113154 | 47 | 357 | 4.0 | 4.0 | 0.00 | 0.37 | 0.37 | 99 | 1009.1 |
| 20260506112649 | 47 | 43 | 4.0 | 6.0 | 0.00 | 0.37 | 0.37 | 99 | 1009.0 |
| 20260506112148 | 47 | 4 | 6.0 | 7.0 | 0.00 | 0.37 | 0.37 | 99 | 1009.1 |
| 20260506111645 | 47 | 55 | 6.0 | 7.0 | 0.00 | 0.37 | 0.37 | 99 | 1008.8 |
| 20260506111143 | 47 | 340 | 2.0 | 3.0 | 0.00 | 0.37 | 0.37 | 99 | 1008.7 |
| 20260506110640 | 47 | 15 | 4.0 | 6.0 | 0.00 | 0.37 | 0.37 | 99 | 1008.9 |
| 20260506110137 | 47 | 359 | 4.0 | 4.0 | 0.00 | 0.37 | 0.37 | 99 | 1008.5 |
| 20260506105633 | 47 | 349 | 3.0 | 4.0 | 0.00 | 0.37 | 0.37 | 99 | 1008.3 |
| 20260506105130 | 47 | 80 | 6.0 | 8.0 | 0.00 | 0.37 | 0.37 | 99 | 1008.4 |
| 20260506104629 | 47 | 1 | 2.0 | 3.0 | 0.00 | 0.37 | 0.37 | 99 | 1008.4 |
| 20260506104126 | 48 | 347 | 3.0 | 4.0 | 0.00 | 0.37 | 0.37 | 99 | 1008.6 |
| 20260506103623 | 48 | 19 | 2.0 | 2.0 | 0.00 | 0.37 | 0.37 | 99 | 1008.6 |
| 20260506103120 | 48 | 356 | 5.0 | 6.0 | 0.00 | 0.37 | 0.37 | 99 | 1008.7 |
| 20260506102618 | 48 | 353 | 6.0 | 7.0 | 0.00 | 0.37 | 0.37 | 99 | 1008.5 |
| 20260506102115 | 48 | 342 | 3.0 | 4.0 | 0.00 | 0.37 | 0.37 | 99 | 1008.0 |
| 20260506101612 | 48 | 338 | 4.0 | 4.0 | 0.00 | 0.37 | 0.37 | 99 | 1007.9 |
| 20260506101108 | 48 | 14 | 4.0 | 6.0 | 0.00 | 0.37 | 0.37 | 99 | 1007.6 |
| 20260506100607 | 48 | 331 | 4.0 | 4.0 | 0.00 | 0.37 | 0.37 | 99 | 1007.5 |
| 20260506100105 | 48 | 11 | 5.0 | 6.0 | 0.00 | 0.37 | 0.37 | 99 | 1007.4 |
| 20260506095604 | 48 | 348 | 3.0 | 3.0 | 0.00 | 0.37 | 0.37 | 99 | 1007.6 |
| 20260506095100 | 48 | 2 | 8.0 | 9.0 | 0.00 | 0.37 | 0.37 | 99 | 1007.4 |
| 20260506094557 | 48 | 337 | 8.0 | 9.0 | 0.00 | 0.37 | 0.37 | 99 | 1007.2 |
| 20260506094055 | 48 | 350 | 6.0 | 8.0 | 0.00 | 0.37 | 0.37 | 99 | 1007.5 |
| 20260506093553 | 48 | 358 | 5.0 | 6.0 | 0.00 | 0.37 | 0.37 | 99 | 1007.6 |
| 20260506093051 | 48 | 339 | 8.0 | 9.0 | 0.00 | 0.37 | 0.37 | 99 | 1007.5 |
| 20260506092548 | 48 | 352 | 9.0 | 9.0 | 0.00 | 0.37 | 0.37 | 99 | 1007.7 |
| 20260506092045 | 48 | 349 | 6.0 | 8.0 | 0.00 | 0.37 | 0.37 | 99 | 1007.6 |
| 20260506091543 | 48 | 5 | 7.0 | 9.0 | 0.05 | 0.37 | 0.37 | 99 | 1007.2 |
| 20260506091040 | 48 | 1 | 8.0 | 9.0 | 0.05 | 0.37 | 0.37 | 99 | 1007.3 |
| 20260506090538 | 48 | 357 | 7.0 | 9.0 | 0.00 | 0.36 | 0.36 | 99 | 1007.2 |
| 20260506090034 | 48 | 1 | 9.0 | 10.0 | 0.07 | 0.36 | 0.36 | 99 | 1006.9 |
| 20260506085531 | 48 | 4 | 5.0 | 8.0 | 0.19 | 0.36 | 0.36 | 99 | 1007.2 |
| 20260506085027 | 48 | 348 | 6.0 | 8.0 | 0.17 | 0.35 | 0.35 | 99 | 1007.4 |
| 20260506084525 | 49 | 352 | 6.0 | 8.0 | 0.19 | 0.34 | 0.34 | 99 | 1007.2 |
| 20260506084020 | 49 | 350 | 8.0 | 8.0 | 0.07 | 0.32 | 0.32 | 99 | 1007.4 |
| 20260506083518 | 49 | 346 | 8.0 | 9.0 | 0.00 | 0.31 | 0.31 | 99 | 1007.6 |
| 20260506083015 | 49 | 344 | 5.0 | 6.0 | 0.00 | 0.31 | 0.31 | 99 | 1007.3 |
| 20260506082512 | 49 | 344 | 8.0 | 9.0 | 0.00 | 0.31 | 0.31 | 99 | 1007.3 |
| 20260506082007 | 49 | 6 | 8.0 | 9.0 | 0.00 | 0.31 | 0.31 | 99 | 1007.3 |
| 20260506081506 | 50 | 324 | 5.0 | 6.0 | 0.05 | 0.31 | 0.31 | 99 | 1007.3 |
| 20260506081003 | 50 | 335 | 5.0 | 6.0 | 0.05 | 0.31 | 0.31 | 99 | 1007.1 |
| 20260506080500 | 50 | 349 | 5.0 | 6.0 | 0.07 | 0.30 | 0.30 | 99 | 1007.0 |
| 20260506073444 | 50 | 342 | 6.0 | 7.0 | 0.00 | 0.27 | 0.27 | 99 | 1006.6 |
| 20260506072941 | 50 | 359 | 9.0 | 9.0 | 0.07 | 0.27 | 0.27 | 99 | 1006.6 |
| 20260506072438 | 51 | 332 | 7.0 | 8.0 | 0.07 | 0.27 | 0.27 | 99 | 1006.6 |
| 20260506071936 | 51 | 354 | 11.0 | 14.0 | 0.05 | 0.26 | 0.26 | 99 | 1006.8 |
| 20260506071433 | 52 | 339 | 8.0 | 9.0 | 0.12 | 0.26 | 0.26 | 99 | 1006.5 |
| 20260506070930 | 52 | 336 | 9.0 | 11.0 | 0.12 | 0.25 | 0.25 | 99 | 1006.5 |
| 20260506070427 | 53 | 306 | 17.0 | 22.0 | 0.12 | 0.24 | 0.24 | 99 | 1006.4 |
| 20260506062405 | 57 | 199 | 3.0 | 3.0 | 0.07 | 0.14 | 0.14 | 99 | 1006.7 |
| 20260506061900 | 57 | 204 | 4.0 | 4.0 | 0.05 | 0.13 | 0.13 | 99 | 1006.6 |
| 20260506061357 | 57 | 185 | 3.0 | 3.0 | 0.12 | 0.13 | 0.13 | 99 | 1006.7 |
| 20260506060855 | 57 | 193 | 4.0 | 4.0 | 0.19 | 0.12 | 0.12 | 99 | 1006.6 |
| 20260506060353 | 57 | 199 | 4.0 | 4.0 | 0.12 | 0.11 | 0.11 | 99 | 1006.8 |
| 20260506051325 | 57 | 192 | 2.0 | 2.0 | 0.00 | 0.01 | 0.01 | 99 | 1007.4 |
| 20260506050823 | 58 | 176 | 2.0 | 2.0 | 0.00 | 0.01 | 0.01 | 99 | 1007.2 |
| 20260506050320 | 57 | 171 | 2.0 | 2.0 | 0.00 | 0.01 | 0.01 | 99 | 1007.3 |
| 20260506044810 | 58 | 220 | 1.0 | 2.0 | 0.00 | 0.00 | 0.00 | 99 | 1007.5 |
| 20260506044308 | 58 | 194 | 1.0 | 2.0 | 0.00 | 0.00 | 0.00 | 99 | 1007.6 |
| 20260506043805 | 58 | 171 | 2.0 | 2.0 | 0.00 | 0.00 | 0.00 | 99 | 1007.6 |
| 20260506043302 | 58 | 196 | 2.0 | 2.0 | 0.00 | 0.00 | 0.00 | 99 | 1007.6 |
| 20260506042801 | 58 | 169 | 2.0 | 2.0 | 0.00 | 0.00 | 0.00 | 99 | 1007.7 |
| 20260506042259 | 58 | 176 | 2.0 | 2.0 | 0.00 | 0.00 | 0.00 | 99 | 1007.5 |
| 20260506041757 | 58 | 254 | 0.0 | 0.0 | 0.00 | 0.00 | 0.00 | 99 | 1007.6 |
| 20260506041254 | 58 | 150 | 0.0 | 0.0 | 0.00 | 0.00 | 0.00 | 99 | 1007.6 |
| 20260506040751 | 58 | 344 | 0.0 | 0.0 | 0.00 | 0.00 | 0.00 | 99 | 1007.5 |
| 20260506040248 | 58 | 242 | 0.0 | 0.0 | 0.00 | 0.00 | 0.00 | 99 | 1007.9 |
| 20260506035745 | 58 | 182 | 1.0 | 1.0 | 0.05 | 0.26 | 0.26 | 99 | 1007.9 |
| 20260506035242 | 58 | 215 | 1.0 | 2.0 | 0.05 | 0.26 | 0.26 | 99 | 1008.3 |
| 20260506034739 | 58 | 243 | 1.0 | 1.0 | 0.07 | 0.25 | 0.25 | 99 | 1008.4 |
| 20260506034236 | 58 | 261 | 0.0 | 0.0 | 0.12 | 0.25 | 0.25 | 99 | 1008.3 |
| 20260506033733 | 58 | 262 | 0.0 | 0.0 | 0.24 | 0.24 | 0.24 | 99 | 1008.5 |
| 20260506033230 | 58 | 241 | 0.0 | 0.0 | 0.31 | 0.23 | 0.23 | 99 | 1008.8 |
| 20260506032727 | 58 | 241 | 0.0 | 0.0 | 0.19 | 0.20 | 0.20 | 99 | 1008.7 |
| 20260506032224 | 58 | 253 | 1.0 | 2.0 | 0.07 | 0.18 | 0.18 | 99 | 1008.8 |
| 20260506031720 | 58 | 274 | 1.0 | 2.0 | 0.05 | 0.17 | 0.17 | 99 | 1008.9 |
| 20260506031218 | 58 | 275 | 0.0 | 0.0 | 0.05 | 0.17 | 0.17 | 99 | 1008.8 |
| 20260506030716 | 58 | 275 | 0.0 | 0.0 | 0.07 | 0.16 | 0.16 | 99 | 1008.9 |
| 20260506030213 | 59 | 275 | 0.0 | 0.0 | 0.07 | 0.16 | 0.16 | 99 | 1008.7 |
| 20260506025710 | 59 | 275 | 0.0 | 0.0 | 0.05 | 0.15 | 0.15 | 99 | 1008.8 |
| 20260506025206 | 59 | 297 | 0.0 | 0.0 | 0.12 | 0.15 | 0.15 | 99 | 1008.9 |
| 20260506024703 | 59 | 297 | 0.0 | 0.0 | 0.12 | 0.14 | 0.14 | 99 | 1008.8 |
| 20260506024159 | 59 | 322 | 0.0 | 0.0 | 0.12 | 0.13 | 0.13 | 99 | 1008.6 |
| 20260506023656 | 59 | 322 | 0.0 | 0.0 | 0.12 | 0.12 | 0.12 | 99 | 1008.6 |
| 20260506023153 | 59 | 322 | 2.0 | 2.0 | 0.12 | 0.11 | 0.11 | 99 | 1008.8 |
| 20260506022650 | 59 | 344 | 2.0 | 2.0 | 0.07 | 0.10 | 0.10 | 99 | 1008.7 |
| 20260506022148 | 59 | 328 | 3.0 | 3.0 | 0.05 | 0.09 | 0.09 | 99 | 1008.9 |
| 20260506021646 | 59 | 353 | 0.0 | 0.0 | 0.05 | 0.09 | 0.09 | 99 | 1008.5 |
| 20260506021143 | 59 | 353 | 0.0 | 0.0 | 0.07 | 0.08 | 0.08 | 99 | 1008.5 |
| 20260506020640 | 59 | 343 | 0.0 | 0.0 | 0.07 | 0.08 | 0.08 | 98 | 1008.4 |
| 20260506020137 | 59 | 341 | 0.0 | 0.0 | 0.00 | 0.07 | 0.07 | 98 | 1008.6 |
| 20260506015635 | 59 | 319 | 0.0 | 0.0 | 0.05 | 0.07 | 0.07 | 98 | 1008.3 |
| 20260506015131 | 59 | 319 | 0.0 | 0.0 | 0.05 | 0.07 | 0.07 | 98 | 1008.3 |
| 20260506014629 | 59 | 319 | 1.0 | 1.0 | 0.07 | 0.06 | 0.06 | 97 | 1008.2 |
| 20260506014124 | 59 | 279 | 0.0 | 0.0 | 0.07 | 0.06 | 0.06 | 97 | 1008.2 |
| 20260506013623 | 59 | 208 | 0.0 | 0.0 | 0.07 | 0.05 | 0.05 | 97 | 1008.3 |
| 20260506013119 | 59 | 207 | 0.0 | 0.0 | 0.07 | 0.05 | 0.05 | 97 | 1008.3 |
| 20260506012615 | 59 | 207 | 0.0 | 0.0 | 0.00 | 0.04 | 0.04 | 97 | 1008.3 |
| 20260506012111 | 60 | 217 | 0.0 | 0.0 | 0.05 | 0.04 | 0.04 | 96 | 1008.2 |
| 20260506011604 | 60 | 218 | 0.0 | 0.0 | 0.05 | 0.04 | 0.04 | 96 | 1008.2 |
| 20260506011059 | 60 | 218 | 0.0 | 0.0 | 0.00 | 0.03 | 0.03 | 95 | 1008.2 |
| 20260506010554 | 60 | 202 | 2.0 | 2.0 | 0.00 | 0.03 | 0.03 | 95 | 1008.2 |
| 20260506010050 | 60 | 253 | 0.0 | 0.0 | 0.00 | 0.03 | 0.03 | 94 | 1008.3 |
| 20260506005547 | 60 | 250 | 2.0 | 2.0 | 0.00 | 0.03 | 0.03 | 94 | 1008.2 |
| 20260506005043 | 60 | 234 | 2.0 | 2.0 | 0.00 | 0.03 | 0.03 | 94 | 1007.9 |
| 20260506004541 | 60 | 232 | 2.0 | 3.0 | 0.00 | 0.03 | 0.03 | 93 | 1008.0 |
| 20260506004037 | 61 | 229 | 3.0 | 3.0 | 0.00 | 0.03 | 0.03 | 93 | 1008.0 |
| 20260506003534 | 60 | 233 | 3.0 | 4.0 | 0.00 | 0.03 | 0.03 | 93 | 1008.0 |
| 20260506003030 | 61 | 241 | 3.0 | 4.0 | 0.00 | 0.03 | 0.03 | 93 | 1008.4 |
| 20260506002526 | 60 | 246 | 5.0 | 6.0 | 0.00 | 0.03 | 0.03 | 93 | 1008.5 |
| 20260506002022 | 60 | 258 | 6.0 | 6.0 | 0.00 | 0.03 | 0.03 | 94 | 1008.5 |
| 20260506001518 | 60 | 254 | 6.0 | 6.0 | 0.00 | 0.03 | 0.03 | 94 | 1008.7 |
| 20260506001016 | 60 | 261 | 8.0 | 9.0 | 0.00 | 0.03 | 0.03 | 95 | 1008.7 |
| 20260506000514 | 60 | 275 | 4.0 | 4.0 | 0.00 | 0.03 | 0.03 | 94 | 1008.8 |
| 20260506000011 | 60 | 274 | 5.0 | 7.0 | 0.00 | 0.03 | 0.03 | 94 | 1008.9 |
| 20260505235509 | 60 | 283 | 6.0 | 7.0 | 0.00 | 0.03 | 0.03 | 95 | 1008.6 |
| 20260505235004 | 60 | 253 | 5.0 | 6.0 | 0.00 | 0.03 | 0.03 | 95 | 1008.6 |
| 20260505234502 | 60 | 257 | 3.0 | 3.0 | 0.00 | 0.03 | 0.03 | 96 | 1008.6 |
| 20260505233959 | 60 | 270 | 4.0 | 4.0 | 0.00 | 0.03 | 0.03 | 96 | 1008.5 |
| 20260505233456 | 60 | 269 | 4.0 | 4.0 | 0.00 | 0.03 | 0.03 | 96 | 1008.6 |
| 20260505232953 | 60 | 255 | 3.0 | 3.0 | 0.00 | 0.03 | 0.03 | 96 | 1008.7 |
| 20260505232451 | 60 | 243 | 3.0 | 3.0 | 0.00 | 0.03 | 0.03 | 96 | 1008.7 |
| 20260505231948 | 60 | 271 | 3.0 | 3.0 | 0.00 | 0.03 | 0.03 | 96 | 1008.9 |
| 20260505231446 | 60 | 242 | 4.0 | 4.0 | 0.00 | 0.03 | 0.03 | 96 | 1009.0 |
| 20260505230944 | 60 | 279 | 6.0 | 7.0 | 0.00 | 0.03 | 0.03 | 96 | 1009.1 |
| 20260505230441 | 60 | 258 | 4.0 | 4.0 | 0.00 | 0.03 | 0.03 | 96 | 1009.0 |
| 20260505225937 | 60 | 253 | 6.0 | 7.0 | 0.00 | 0.03 | 0.03 | 96 | 1009.0 |
| 20260505225435 | 60 | 267 | 4.0 | 4.0 | 0.00 | 0.03 | 0.03 | 95 | 1009.1 |
| 20260505224930 | 60 | 262 | 6.0 | 7.0 | 0.07 | 0.03 | 0.03 | 95 | 1009.1 |
| 20260505224427 | 60 | 271 | 10.0 | 10.0 | 0.19 | 0.03 | 0.03 | 93 | 1009.3 |
| 20260505223925 | 61 | 284 | 15.0 | 16.0 | 0.12 | 0.02 | 0.02 | 90 | 1009.1 |
| 20260505223421 | 66 | 272 | 19.0 | 22.0 | 0.00 | 0.00 | 0.00 | 81 | 1009.1 |
| 20260505222918 | 69 | 262 | 9.0 | 10.0 | 0.00 | 0.00 | 0.00 | 68 | 1008.8 |
| 20260505222414 | 69 | 229 | 6.0 | 6.0 | 0.00 | 0.00 | 0.00 | 64 | 1008.6 |
| 20260505221910 | 70 | 205 | 9.0 | 10.0 | 0.00 | 0.00 | 0.00 | 62 | 1008.4 |
| 20260505221408 | 70 | 220 | 8.0 | 10.0 | 0.00 | 0.00 | 0.00 | 62 | 1008.2 |
| 20260505220905 | 70 | 205 | 11.0 | 13.0 | 0.00 | 0.00 | 0.00 | 61 | 1008.4 |
| 20260505220402 | 70 | 218 | 12.0 | 15.0 | 0.00 | 0.00 | 0.00 | 61 | 1008.5 |
| 20260505215859 | 70 | 218 | 9.0 | 11.0 | 0.00 | 0.00 | 0.00 | 61 | 1008.4 |
| 20260505215357 | 71 | 218 | 15.0 | 16.0 | 0.00 | 0.00 | 0.00 | 61 | 1008.2 |